Hourly Data Report for April 17, 2020

NANAIMO A
BRITISH COLUMBIA
Current Station Operator: NAVCAN

49°03'16.000" N
123°52'12.000" W
28.00 m
1025365
YCD

Download Data

Hourly Data (April 2020)
Hourly Data Report for April 17, 2020
TIME
LST
Temp Definition
°C
Dew Point Definition
°C
Rel Hum Definition
%
Precip. Amount Definition
mm

Wind Dir Definition
10's deg

Wind Spd Definition
km/h
Visibility Definition
km
Stn Press Definition
kPa
Hmdx Definition


Wind Chill Definition


Weather Definition


00:00 7.8 1.5 64 LegendMM 18 5 LegendMM 101.55     LegendNANA
01:00 6.5 1.4 70 LegendMM 2 2 LegendMM 101.53     LegendNANA
02:00 5.8 2.2 77 LegendMM 32 1 LegendMM 101.46     LegendNANA
03:00 6.3 1.7 72 LegendMM 18 4 LegendMM 101.46     LegendNANA
04:00 5.7 1.9 77 LegendMM 23 1 LegendMM 101.43     LegendNANA
05:00 4.8 1.8 81 LegendMM 19 6 LegendMM 101.39     LegendNANA
06:00 4.7 1.8 82 LegendMM 21 2 LegendMM 101.35     LegendNANA
07:00 6.4 4.1 85 LegendMM 10 2 LegendMM 101.35     LegendNANA
08:00 10.6 5.3 69 LegendMM 2 2 LegendMM 101.30     LegendNANA
09:00 12.2 4.2 58 LegendMM 6 2 LegendMM 101.25     LegendNANA
10:00 13.7 4.3 53 LegendMM 1 9 LegendMM 101.24     LegendNANA
11:00 14.5 4.2 50 LegendMM 6 9 LegendMM 101.19     LegendNANA
12:00 14.6 4.5 50 LegendMM 30 4 LegendMM 101.12     LegendNANA
13:00 14.4 4.8 52 LegendMM 6 14 LegendMM 101.05     LegendNANA
14:00 14.3 5.9 57 LegendMM 8 9 LegendMM 100.99     LegendNANA
15:00 15.0 4.8 50 LegendMM 4 9 LegendMM 100.92     LegendNANA
16:00 15.1 4.4 48 LegendMM 4 5 LegendMM 100.87     LegendNANA
17:00 14.8 5.0 51 LegendMM 13 7 LegendMM 100.80     LegendNANA
18:00 14.1 5.2 55 LegendMM 18 7 LegendMM 100.76     LegendNANA
19:00 13.2 5.0 57 LegendMM 13 2 LegendMM 100.72     LegendNANA
20:00 11.2 8.9 86 LegendMM 22 5 LegendMM 100.73     LegendNANA
21:00 10.2 9.7 97 LegendMM 31 5 LegendMM 100.79     LegendNANA
22:00 9.8 9.6 99 LegendMM 12 3 LegendMM 100.78     LegendNANA
23:00 10.0 9.7 98 LegendMM 7 4 LegendMM 100.77     LegendNANA

Notes on Data Quality.

Legend

  • E = Estimated
  • M = Missing
  • NA = Not Available*
  • [empty] = Indicates an unobserved value
Date modified: